SIA37 KLAX-WSSS

Flight info

Callsign SIA37
Flight time N/A
Altitude 34000
Route VTU8 RZS DCT MQO DCT AUDIA DCT 36N130W 39N140W 42N150W 43N160W/N0497F360 38N170W 32N180E 28N170E/N0487F380 25N160E 21N150E/N0486F400 17N140E DCT ENDAX P515 TOKON M767 TOMAN
Aircraft A359/H-SDE2E3GHIJ3J4J5LM1ORWXY/LB1D1

Departure

Time 2026-05-06 11:58
Airport Los Angeles International Airport (KLAX)

Arrival

Time N/A
Airport Singapore Changi Airport (WSSS)
Time Latitude Longitude Altitude Speed Heading
2026-05-06 11:01 33.94461 -118.41135 102 ft 0 kts 84°
2026-05-06 11:42 33.94460 -118.41143 99 ft 4 kts 84°
2026-05-06 11:42 33.94457 -118.41176 99 ft 4 kts 84°
2026-05-06 11:42 33.94454 -118.41202 100 ft 4 kts 85°
2026-05-06 11:42 33.94457 -118.41232 100 ft 4 kts 123°
2026-05-06 11:43 33.94476 -118.41251 101 ft 4 kts 166°
2026-05-06 11:43 33.94501 -118.41256 99 ft 4 kts 173°
2026-05-06 11:43 33.94517 -118.41258 100 ft 0 kts 173°
2026-05-06 11:48 33.94511 -118.41257 99 ft 3 kts 173°
2026-05-06 11:48 33.94465 -118.41250 100 ft 9 kts 173°
2026-05-06 11:48 33.94399 -118.41241 101 ft 10 kts 173°
2026-05-06 11:49 33.94330 -118.41230 101 ft 10 kts 173°
2026-05-06 11:49 33.94258 -118.41220 102 ft 11 kts 173°
2026-05-06 11:49 33.94186 -118.41209 102 ft 11 kts 173°
2026-05-06 11:49 33.94109 -118.41198 102 ft 11 kts 173°
2026-05-06 11:50 33.94032 -118.41187 101 ft 11 kts 173°
2026-05-06 11:50 33.93954 -118.41175 101 ft 12 kts 173°
2026-05-06 11:50 33.93874 -118.41163 100 ft 12 kts 172°
2026-05-06 11:50 33.93795 -118.41148 103 ft 11 kts 162°
2026-05-06 11:51 33.93768 -118.41079 99 ft 9 kts 88°
2026-05-06 11:51 33.93776 -118.41000 99 ft 10 kts 83°
2026-05-06 11:51 33.93785 -118.40916 99 ft 11 kts 83°
2026-05-06 11:51 33.93796 -118.40802 103 ft 17 kts 83°
2026-05-06 11:52 33.93811 -118.40660 104 ft 17 kts 83°
2026-05-06 11:52 33.93825 -118.40521 104 ft 16 kts 83°
2026-05-06 11:52 33.93838 -118.40388 103 ft 16 kts 83°
2026-05-06 11:52 33.93851 -118.40262 103 ft 15 kts 83°
2026-05-06 11:53 33.93863 -118.40138 104 ft 15 kts 83°
2026-05-06 11:53 33.93876 -118.40018 105 ft 14 kts 81°
2026-05-06 11:53 33.93888 -118.39900 105 ft 15 kts 83°
2026-05-06 11:53 33.93903 -118.39755 102 ft 19 kts 83°
2026-05-06 11:54 33.93921 -118.39580 101 ft 21 kts 83°
2026-05-06 11:54 33.93939 -118.39404 103 ft 21 kts 83°
2026-05-06 11:54 33.93957 -118.39228 102 ft 21 kts 83°
2026-05-06 11:54 33.93974 -118.39058 101 ft 20 kts 83°
2026-05-06 11:55 33.93990 -118.38897 101 ft 19 kts 83°
2026-05-06 11:55 33.94007 -118.38737 102 ft 19 kts 83°
2026-05-06 11:55 33.94022 -118.38586 103 ft 18 kts 83°
2026-05-06 11:55 33.94037 -118.38441 104 ft 17 kts 83°
2026-05-06 11:56 33.94051 -118.38300 105 ft 17 kts 83°
2026-05-06 11:56 33.94067 -118.38159 100 ft 18 kts 83°
2026-05-06 11:56 33.94075 -118.38074 99 ft 6 kts 83°
2026-05-06 11:56 33.94068 -118.38026 99 ft 6 kts 125°
2026-05-06 11:57 33.94018 -118.38006 99 ft 10 kts 180°
2026-05-06 11:57 33.93984 -118.38051 102 ft 7 kts 251°
2026-05-06 11:57 33.93980 -118.38077 100 ft 0 kts 262°
2026-05-06 11:57 33.93967 -118.38200 104 ft 44 kts 263°
2026-05-06 11:58 33.93899 -118.38861 104 ft 114 kts 263°
2026-05-06 11:58 33.93775 -118.40061 106 ft 173 kts 263°
2026-05-06 11:58 33.93627 -118.41577 677 ft 180 kts 264°
2026-05-06 11:58 33.93478 -118.43050 1506 ft 180 kts 264°
2026-05-06 11:59 33.93317 -118.44595 1796 ft 190 kts 263°
2026-05-06 11:59 33.93117 -118.46226 2000 ft 204 kts 262°
2026-05-06 11:59 33.92894 -118.47973 2215 ft 217 kts 262°
2026-05-06 11:59 33.92671 -118.49822 2456 ft 231 kts 262°
2026-05-06 12:00 33.92442 -118.51784 2671 ft 247 kts 262°
2026-05-06 12:00 33.92201 -118.53866 3048 ft 254 kts 262°
2026-05-06 12:00 33.91958 -118.55988 3478 ft 258 kts 262°
2026-05-06 12:00 33.91710 -118.58149 3949 ft 262 kts 262°
2026-05-06 12:01 33.91500 -118.60327 4445 ft 263 kts 269°
2026-05-06 12:01 33.91710 -118.62519 4939 ft 264 kts 288°
2026-05-06 12:01 33.92439 -118.64551 5449 ft 266 kts 298°
2026-05-06 12:01 33.93322 -118.66509 5977 ft 267 kts 299°
2026-05-06 12:02 33.94237 -118.68465 6514 ft 268 kts 300°
2026-05-06 12:02 33.95165 -118.70429 7043 ft 271 kts 300°
2026-05-06 12:02 33.96092 -118.72385 7555 ft 274 kts 300°
2026-05-06 12:02 33.97043 -118.74387 8081 ft 277 kts 300°
2026-05-06 12:03 33.98006 -118.76416 8598 ft 280 kts 300°
2026-05-06 12:03 33.98979 -118.78466 9115 ft 283 kts 301°
2026-05-06 12:03 33.99961 -118.80533 9597 ft 286 kts 301°
2026-05-06 12:03 34.00955 -118.82628 10103 ft 290 kts 301°
2026-05-06 12:04 34.01976 -118.84780 10376 ft 302 kts 301°
2026-05-06 12:04 34.03042 -118.87025 10607 ft 315 kts 301°
2026-05-06 12:04 34.04152 -118.89367 10857 ft 328 kts 301°
2026-05-06 12:04 34.05305 -118.91800 11078 ft 340 kts 302°
2026-05-06 12:05 34.06494 -118.94316 11308 ft 352 kts 301°
2026-05-06 12:05 34.07714 -118.96898 11548 ft 363 kts 301°
2026-05-06 12:05 34.08986 -118.99589 11775 ft 374 kts 302°
2026-05-06 12:05 34.10288 -119.02344 12097 ft 380 kts 302°
2026-05-06 12:06 34.11597 -119.05121 12589 ft 382 kts 302°
2026-05-06 12:06 34.12961 -119.07889 13061 ft 384 kts 305°
2026-05-06 12:06 34.14432 -119.10592 13512 ft 386 kts 307°
2026-05-06 12:06 34.15953 -119.13265 13958 ft 388 kts 308°
2026-05-06 12:07 34.17495 -119.15952 14409 ft 390 kts 308°
2026-05-06 12:07 34.19035 -119.18660 14848 ft 392 kts 307°
2026-05-06 12:07 34.20571 -119.21396 15294 ft 395 kts 307°
2026-05-06 12:07 34.22102 -119.24156 15724 ft 397 kts 307°
2026-05-06 12:08 34.23639 -119.26945 16162 ft 400 kts 307°
2026-05-06 12:08 34.25178 -119.29753 16604 ft 402 kts 307°
2026-05-06 12:08 34.26724 -119.32577 17043 ft 404 kts 307°
2026-05-06 12:08 34.28279 -119.35419 17448 ft 406 kts 307°
2026-05-06 12:09 34.29844 -119.38281 17839 ft 409 kts 307°
2026-05-06 12:09 34.31416 -119.41158 18240 ft 411 kts 307°
2026-05-06 12:09 34.32994 -119.44045 18635 ft 413 kts 307°
2026-05-06 12:09 34.34584 -119.46957 19030 ft 415 kts 307°
2026-05-06 12:10 34.36181 -119.49884 19418 ft 418 kts 307°
2026-05-06 12:10 34.37763 -119.52785 19795 ft 420 kts 307°
2026-05-06 12:10 34.39376 -119.55747 20178 ft 422 kts 307°
2026-05-06 12:10 34.40996 -119.58723 20570 ft 424 kts 308°
2026-05-06 12:11 34.42625 -119.61719 20949 ft 427 kts 308°
2026-05-06 12:11 34.44261 -119.64730 21320 ft 429 kts 308°
2026-05-06 12:11 34.45900 -119.67750 21694 ft 431 kts 308°
2026-05-06 12:11 34.47550 -119.70792 22041 ft 433 kts 308°
2026-05-06 12:12 34.49031 -119.74006 22318 ft 441 kts 298°
2026-05-06 12:12 34.49994 -119.77569 22598 ft 451 kts 285°
2026-05-06 12:12 34.50297 -119.81392 22921 ft 459 kts 276°
2026-05-06 12:12 34.50252 -119.85287 23231 ft 465 kts 271°
2026-05-06 12:13 34.50027 -119.89211 23563 ft 469 kts 269°
2026-05-06 12:13 34.49719 -119.93160 23885 ft 472 kts 269°
2026-05-06 12:13 34.49390 -119.97138 24172 ft 475 kts 269°
2026-05-06 12:13 34.49074 -120.01127 24496 ft 477 kts 269°
2026-05-06 12:14 34.48776 -120.05144 24870 ft 478 kts 270°
2026-05-06 12:14 34.48493 -120.09170 25164 ft 481 kts 270°
2026-05-06 12:14 34.48219 -120.13221 25441 ft 485 kts 270°
2026-05-06 12:14 34.47947 -120.17300 25757 ft 486 kts 270°
2026-05-06 12:15 34.47678 -120.21346 26079 ft 488 kts 270°
2026-05-06 12:15 34.47403 -120.25458 26372 ft 490 kts 270°
2026-05-06 12:15 34.47126 -120.29588 26643 ft 493 kts 270°
2026-05-06 12:15 34.46844 -120.33749 26926 ft 495 kts 270°
2026-05-06 12:16 34.46560 -120.37922 27190 ft 498 kts 270°
2026-05-06 12:16 34.46271 -120.42120 27446 ft 500 kts 270°
2026-05-06 12:16 34.45979 -120.46331 27734 ft 502 kts 270°
2026-05-06 12:16 34.45685 -120.50557 28012 ft 504 kts 270°
2026-05-06 12:17 34.45389 -120.54785 28300 ft 505 kts 270°
2026-05-06 12:17 34.45094 -120.58984 28507 ft 507 kts 270°
2026-05-06 12:17 34.44793 -120.63257 28751 ft 510 kts 269°
2026-05-06 12:17 34.44488 -120.67539 29023 ft 511 kts 269°
2026-05-06 12:18 34.44182 -120.71834 29251 ft 512 kts 269°
2026-05-06 12:18 34.43874 -120.76142 29434 ft 515 kts 269°
2026-05-06 12:18 34.43562 -120.80474 29659 ft 517 kts 269°
2026-05-06 12:18 34.43248 -120.84813 29883 ft 518 kts 269°
2026-05-06 12:19 34.42931 -120.89167 30064 ft 520 kts 269°
2026-05-06 12:19 34.42611 -120.93532 30246 ft 521 kts 269°
2026-05-06 12:19 34.42288 -120.97926 30468 ft 522 kts 269°
2026-05-06 12:19 34.41968 -121.02252 30777 ft 520 kts 269°
2026-05-06 12:20 34.41644 -121.06612 31060 ft 519 kts 269°
2026-05-06 12:20 34.41319 -121.10972 31286 ft 519 kts 269°
2026-05-06 12:20 34.40995 -121.15316 31517 ft 519 kts 269°
2026-05-06 12:20 34.40668 -121.19662 31749 ft 518 kts 269°
2026-05-06 12:21 34.40339 -121.24008 31975 ft 518 kts 269°
2026-05-06 12:21 34.40009 -121.28349 32190 ft 517 kts 269°
2026-05-06 12:21 34.39677 -121.32694 32399 ft 517 kts 269°
2026-05-06 12:21 34.39344 -121.37015 32588 ft 516 kts 269°
2026-05-06 12:22 34.39010 -121.41345 32763 ft 516 kts 269°
2026-05-06 12:22 34.38675 -121.45679 32954 ft 516 kts 269°
2026-05-06 12:22 34.38340 -121.49993 33140 ft 515 kts 269°
2026-05-06 12:22 34.38003 -121.54322 33312 ft 515 kts 269°
2026-05-06 12:23 34.37669 -121.58579 33461 ft 515 kts 269°
2026-05-06 12:23 34.37439 -121.61494 33567 ft 515 kts 269°
2026-05-06 12:23 34.36988 -121.67202 33757 ft 514 kts 269°
2026-05-06 12:23 34.36645 -121.71513 33954 ft 514 kts 269°
2026-05-06 12:24 34.36300 -121.75813 34087 ft 514 kts 269°
2026-05-06 12:24 34.35954 -121.80120 34145 ft 516 kts 269°
2026-05-06 12:24 34.35370 -121.87397 34147 ft 520 kts 269°
2026-05-06 12:25 34.34668 -121.96053 34148 ft 520 kts 269°
2026-05-06 12:25 34.33952 -122.04759 34147 ft 520 kts 269°
2026-05-06 12:26 34.33231 -122.13447 34148 ft 518 kts 269°
2026-05-06 12:26 34.32504 -122.22133 34146 ft 518 kts 269°
2026-05-06 12:27 34.31773 -122.30808 34142 ft 518 kts 268°
2026-05-06 12:27 34.31038 -122.39450 34145 ft 518 kts 268°
2026-05-06 12:28 34.30294 -122.48137 34149 ft 518 kts 268°
2026-05-06 12:28 34.29545 -122.56813 34138 ft 518 kts 268°
2026-05-06 12:29 34.28790 -122.65479 34138 ft 517 kts 268°
2026-05-06 12:29 34.28030 -122.74135 34136 ft 517 kts 268°
2026-05-06 12:30 34.27267 -122.82728 34136 ft 517 kts 268°
2026-05-06 12:30 34.26493 -122.91362 34137 ft 516 kts 268°
2026-05-06 12:31 34.25719 -122.99990 34137 ft 516 kts 268°
2026-05-06 12:31 34.25472 -123.08593 34137 ft 507 kts 281°
2026-05-06 12:32 34.26980 -123.16813 34138 ft 498 kts 292°
2026-05-06 12:32 34.29236 -123.24733 34137 ft 497 kts 295°